www.pogodaiklimat.ru

Погода и климат >> Архив погоды >> Китай >> Yulin


ПОГОДА в Yulin

  • Прогноз погоды в Yulin
  • Монитор погоды в Yulin
  • Климат города

АРХИВ ПОГОДЫ в Yulin

Время (UTC), дата Ветер
(напр.,м/с)
 
Видим.   Явления Облачность Т
(С)
Тd
(С)
f
(%)
Тe
(С)
Тes
(С)
Комфортность P
(гПа)
Po
(гПа)
Тmin
(С)
Tmax
(С)
R
(мм)
R24
(мм)
S
(см)
15 11.12 Ю 2 30 км ?/? -12.9 -27.2 29 -18 -18 1045.7 850.6
18 11.12 ЮВ 1 30 км н/о -14.2 -27.7 31 -17 -17 1043.4 898.4 0.0
21 11.12 В 2 30 км н/о -16.3 -26.2 42 -22 -22 1042.3 1042.0
00 12.12 В 1 30 км ясно -17.4 -25.3 50 -20 -20 1044.0 897.3
03 12.12 Ю 3 30 км ясно -9.1 -26.0 24 -14 -11 1042.0 848.1
06 12.12 ЮЗ 2 30 км ясно -4.3 -26.4 16 -7 -3 1038.4 895.2 -17.5
09 12.12 Ю 1 30 км ясно -3.8 -24.7 18 -5 -5 1038.5 1039.0
12 12.12 Ю 2 30 км ясно -6.6 -24.3 23 -10 -10 1040.7 1087.4
15 12.12 З 1 30 км н/о -9.2 -21.9 35 -11 -11 1039.9 1040.0
18 12.12 СЗ 2 19 км н/о -12.8 -21.1 50 -17 -17 1039.9 896.9 -2.3
21 12.12 СЗ 2 30 км н/о -14.9 -23.5 48 -20 -20 1040.3 1040.0
00 13.12 С 1 30 км 4/4
[]
-15.9 -23.3 53 -19 -19 1042.2 897.5
03 13.12 З 2 23 км 6/6
[]
-10.1 -22.0 37 -14 -13 1041.8 849.0
06 13.12 Ю 2 30 км 10/10
[]
-4.2 -23.3 21 -7 -7 1038.4 895.6 -16.1
09 13.12 Ю 2 30 км 9/9
[]
-3.2 -23.6 19 -6 -6 1038.2 1038.0
12 13.12 Ю 2 30 км 9/9
[]
-5.3 -22.7 24 -9 -9 1039.4 1085.6
15 13.12 В 2 30 км ?/? -5.9 -21.9 27 -9 -9 1038.2 1038.0
18 13.12 ЮВ 3 30 км н/о -7.5 -21.7 31 -13 -13 1036.4 895.2 -1.9
21 13.12 ЮВ 2 н/о н/о -8.6 -19.8 40 -13 -13 1035.3 1035.0
00 14.12 ЮВ 4 30 км 3/3
[]
-8.5 -21.6 34 -15 -15 1036.0 894.3
03 14.12 Ю 3 30 км 8/8
[]
-3.5 -20.3 26 -8 -7 1035.3 846.5
06 14.12 ЮВ 3 30 км 9/9
[]
+1.1 -20.6 18 -2 -2 1031.7 892.4 -8.9
09 14.12 ЮВ 3 30 км 9/9
[]
-0.5 -18.6 24 -4 -4 1032.2 1032.0
12 14.12 ЮВ 3 30 км 8/8
[]
-2.8 -18.4 29 -7 -7 1034.1 893.3
15 14.12 ЮВ 3 30 км н/о -3.2 -17.9 31 -7 -7 1033.3 847.0
18 14.12 Ю 3 30 км н/о -4.7 -16.5 39 -9 -9 1032.0 893.3 +1.8
21 14.12 З 2 30 км н/о -7.4 -15.8 51 -11 -11 1032.3 1032.0
00 15.12 З 2 30 км 9/9
[]
-9.5 -16.6 56 -14 -14 1034.7 893.6
03 15.12 З 2 25 км 9/9
[]
-5.9 -17.0 41 -10 -9 1035.1 846.8
06 15.12 З 3 30 км 9/9
[]
+1.3 -18.6 21 -2 -2 1031.2 892.7 -9.6
09 15.12 СЗ 4 30 км 8/8
[]
+2.2 -18.5 20 -1 -1 1031.5 1032.0
12 15.12 З 3 30 км 9/9
[]
-1.8 -17.9 28 -6 -6 1034.2 893.4
15 15.12 ЮЗ 1 30 км н/о -3.9 -17.5 34 -5 -5 1033.7 846.4
18 15.12 Ю 3 30 км н/о -7.7 -16.6 49 -13 -13 1031.0 891.8 +3.7
21 15.12 Ю 3 30 км н/о -8.9 -16.1 56 -14 -14 1030.0 1030.0
00 16.12 Ю 2 30 км 3/3
[]
-10.4 -15.9 64 -15 -15 1032.5 891.7
03 16.12 З 2 30 км 8/8
[]
-3.7 -14.7 42 -7 -6 1032.1 844.1
06 16.12 З 8 23 км 6/6
[]
+4.5 -18.5 17 -0 0 1027.6 889.6 -10.5
09 16.12 СЗ 4 30 км ясно +2.5 -18.8 19 -1 -1 1029.6 1030.0
12 16.12 СЗ 3 30 км ясно -1.7 -17.4 29 -6 -6 1033.1 892.2
15 16.12 С 3 30 км н/о -5.4 -16.6 41 -10 -10 1032.3 845.9
18 16.12 З 1 30 км н/о -7.3 -15.7 51 -9 -9 1030.3 892.0 +4.7
21 16.12 В 1 30 км н/о -9.7 -16.0 60 -12 -12 1031.2 1031.0
00 17.12 Ю 1 30 км 3/3
[]
-10.9 -16.4 64 -13 -13 1033.2 892.2
03 17.12 ЮЗ 2 30 км ясно -3.5 -15.5 39 -7 -3 1032.3 844.5
06 17.12 ЮЗ 2 30 км ясно +2.6 -17.0 22 +1 +5 1027.5 889.2 -10.9
09 17.12 Ю 2 30 км ясно +3.4 -18.1 19 +2 +2 1026.5 1027.0
12 17.12 ЮВ 4 30 км ясно -1.1 -16.9 29 -6 -6 1028.2 1073.2
15 17.12 З 2 30 км н/о -3.0 -15.0 39 -6 -6 1027.0 1027.0
18 17.12 С 2 30 км н/о -4.6 -15.9 41 -8 -8 1025.9 888.4 +4.8
21 17.12 З 2 29 км н/о -8.5 -15.7 56 -13 -13 1026.3 1026.0
00 18.12 В 2 30 км 1/1
[]
-8.3 -16.4 52 -12 -12 1027.6 888.1
03 18.12 Ю 1 30 км ясно +0.4 -17.3 25 -0 +4 1025.4 1025.0
06 18.12 З 3 30 км 1/1
[]
+6.2 -22.1 11 +4 +7 1021.0 885.0 -8.7
09 18.12 З 4 30 км 5/5
[]
+6.0 -23.4 10 +3 +3 1022.2 1022.0
12 18.12 С 4 30 км ясно +2.3 -21.0 16 -1 -1 1024.5 886.3

 

Местоположение метеостанции Yulin (Китай): широта 38.23 долгота 109.70 высота над уровнем моря 1058 м.

В архиве по умолчанию представлена погода в Yulin за последнюю неделю. Архивные данные за месяц целиком и за предыдущие месяцы, начиная с января 2011 года, Вы можете получить, выбрав интересующий диапазон дат из раскрывающегося списка и нажав кнопку "Ввод!".


*Определитесь, кто Вы:
робот инопланетянин человек

Внимание! Время в таблицах - всемирное. Для получения местного времени необходимо прибавить поправку, которая в Yulin равна 8 ч.

Смотрите также архив погоды в соседних городах и на ближайших метеорологических станциях:

Погода в Lishi (Китай) (147 км)
Погода в Otog Qi (Китай) (178 км)
Погода в Hequ (Китай) (179 км)
Погода в Dongsheng (Китай) (180 км)
Погода в Yan An (Китай) (182 км)
Погода в Yanchi (Китай) (209 км)
Погода в Jiexiu (Китай) (236 км)
Погода в Taiyuan (Китай) (255 км)
Погода в Yuanping (Китай) (267 км)
Погода в Yinchuan (Китай) (306 км)

Пояснения к столбцам:

Ветер - указаны скорость ветра в м/с - средняя за 10 мин, порывы в срок и между сроками (в фигурных скобках) и направление, откуда дует ветер: С - северный, СВ - северо-восточный, В - восточный, ЮВ - юго-восточный, Ю - южный, ЮЗ - юго-западный, З - западный, СЗ - северо-западный.
Видимость - горизонтальная дальность видимости в метрах или километрах. При видимости от 1 до 10 км при отсутствии осадков обычно наблюдается дымка, при ухудшении видимости до 1 км и менее - туман. В сухую погоду видимость может ухудшаться дымом, пылью или мглою.
Явления - указаны атмосферные явления, наблюдавшиеся в срок или в последний час перед сроком; фигурными скобками обозначены явления, наблюдавшиеся между сроками (за 1-3 часа до срока); квадратными скобками обозначены град или гололедные отложения с указанием их диаметра в мм.
Облачность - указаны через наклонную черту общая и нижняя облачность в баллах и высота нижней границы облаков в метрах; квадратными скобками обозначены формы облаков: Ci - перистые, Cs - перисто-слоистые, Cc - перисто-кучевые, Ac - высококучевые, As - высокослоистые, Sc - слоисто-кучевые, Ns - слоисто-дождевые, Cu - кучевые, Cb - кучево-дождевые. Подробнее классификацию облаков см. в Атласе облаков (PDF).
T - Температура воздуха - температура, измеренная на высоте 2 м над землей.
Td - Температура точки росы - температура, при понижении до которой содержащийся в воздухе водяной пар достигнет насыщения.
f - Относительная влажность воздуха - влажноcть воздуха, измеренная на высоте 2 м над землей.
Te - Эффективная температура - температура, которую ощущает одетый по сезону человек в тени. Характеристика душности погоды. При расчете учитывается влияние влажности воздуха и скорости ветра на теплоощущения человека.
Tes - Эффективная температура на солнце - температура, которую ощущает человек, с поправкой на солнечный нагрев. Характеристика знойности погоды. Зависит от высоты солнца над горизонтом, облачности и скорости ветра. Ночью, в пасмурную погоду, а также при ветре 12 м/с и более поправка равна нулю.
P - Атмосферное давление - приведенное к уровню моря атмосферное давление.
Po - Атмосферное давление - измеренное на уровне метеостанции атмосферное давление.
Tmin - Минимальная температура - минимум температуры воздуха на высоте 2 м над землей.
Tmax - Максимальная температура - максимум температуры воздуха на высоте 2 м над землей.
R - Количество осадков - Количество выпавших осадков за период времени, мм. При наведении курсора мыши на число - период времени, за который выпало указанное количество осадков.
R24 - Количество осадков - Количество выпавших осадков за 24 часа, мм.
S - Снежный покров - Высота снежного покрова, см. При наведении курсора мыши на число - состояние снежного покрова и степень покрытия местности в баллах.